Regional Weather Roundup
Issued by NWS Sioux Falls, SD

Home | Current Version | Previous Version | Text Only | Print | Product List | Glossary On
Versions: 1 2 3 4 5 6 7 8 9 10 11 12 13 14 15 16 17 18 19 20 21 22 23 24 25 26 27 28 29 30 31 32 33 34 35 36 37 38 39 40 41 42 43 44 45 46 47 48 49 50
000
ASUS43 KFSD 201310
RWRFSD

WEATHER ROUNDUP FOR SE SOUTH DAKOTA/SW MINNESOTA/NW IOWA
NATIONAL WEATHER SERVICE SIOUX FALLS SD
800 AM CDT WED SEP 20 2017

NOTE: "FAIR" INDICATES FEW OR NO CLOUDS BELOW 12,000 FEET WITH NO
SIGNIFICANT WEATHER AND OR OBSTRUCTIONS TO VISIBILITY.


SDZ038>040-050-052>070-201400-
SOUTHEAST SOUTH DAKOTA

CITY           SKY/WX    TMP DP  RH WIND       PRES   REMARKS
BROOKINGS      CLEAR     52  49  89 W9        29.77R
CHAMBERLAIN    CLOUDY    49  49  99 SW5       29.84R
HURON          MOCLDY    51  47  86 W9        29.80R
MADISON        FAIR      50  50 100 NW14      29.78R
MITCHELL       CLEAR     52  49  89 W10       29.81R
SIOUX FALLS    PTCLDY    55  52  89 NW12      29.78R
WINNER         FAIR      49  45  86 SW6       29.85R
YANKTON        CLEAR     53  50  89 NW10      29.81R
$$

MNZ071-072-080-081-089-090-097-098-201400-
SOUTHWEST MINNESOTA

CITY           SKY/WX    TMP DP  RH WIND       PRES   REMARKS
FAIRMONT       CLEAR     62  58  86 W9        29.72R
JACKSON        CLEAR     57  54  88 W10       29.74R
LUVERNE        CLEAR     54  50  87 NW12      29.78R
MARSHALL       CLEAR     56  54  93 W8        29.74R
MONTEVIDEO     MOCLDY    59  57  94 NW8       29.71S
PIPESTONE      CLEAR     54  52  94 NW9       29.77R
REDWOOD FALLS  CLEAR     59  55  87 W10       29.71R
TRACY          CLEAR     57  56  95 W3        29.73R
WINDOM         CLEAR     57  54  88 W8        29.73R
WORTHINGTON    CLEAR     57  53  86 W10       29.76R
$$

IAZ001>003-012>014-020>022-031-032-NEZ013-014-SDZ071-201400-
NORTHWEST IOWA

CITY           SKY/WX    TMP DP  RH WIND       PRES   REMARKS
CHEROKEE       CLEAR     60  58  92 NW3       29.76R
DENISON        PTCLDY    63  57  82 NW7       29.76R
ESTHERVILLE    CLEAR     59  58  96 W7        29.73R
LE MARS        CLEAR     57  55  94 NW10      29.77R
ORANGE CITY    CLEAR     57  57 100 NW8       29.77R
SHELDON        CLEAR     57  55  94 VRB3      29.75R
SIOUX CITY     CLEAR     58  57  97 NW7       29.77R
SPENCER        CLEAR     59  56  89 W12       29.75R
STORM LAKE     CLEAR     59  55  88 NW13      29.76R
$$

ABBREVIATIONS USED IN REMARKS
   TC - TEMPERATURE IN CELSIUS
  WCI - WIND CHILL INDEX
   HX - HEAT INDEX
  VSB - VISIBILITY




USA.gov is the U.S. government's official web portal to all federal, state and local government web resources and services.